Location: Middlebury
(44.0133°N, 73.1813°W)
Time: 15:24:02
(UTC-05:00)

N. Korean satellite - Visible Passes

Search period start: 22 January 2022 00:00
Search period end: 01 February 2022 00:00
Orbit: 447 x 491 km, 97.3° (Epoch: 22 January)

Date Brightness Start Highest point End Pass type
(mag) Time Alt. Az. Time Alt. Az. Time Alt. Az.
22 Jan 9.5 04:21:09 10° NE 04:22:15 15° ENE 04:22:15 15° ENE visible
22 Jan 7.7 05:53:57 10° NNW 05:56:18 25° NW 05:56:18 25° NW visible
23 Jan 7.0 05:24:26 10° N 05:27:13 46° NNW 05:27:13 46° NNW visible
24 Jan 7.6 04:55:18 10° NNE 05:04:26 - S 04:58:07 44° NE visible
24 Jan 8.5 06:30:15 10° NW 06:31:34 12° WNW 06:32:11 11° WNW visible
25 Jan 9.0 04:26:35 10° NE 04:29:02 23° E 04:29:02 23° E visible
25 Jan 7.7 05:59:41 10° NNW 06:02:38 23° WNW 06:03:06 23° W visible
26 Jan 10.0 03:59:11 10° ENE 03:59:57 11° E 03:59:57 11° E visible
26 Jan 6.6 05:30:02 10° N 05:33:35 52° WNW 05:34:01 48° W visible
27 Jan 6.9 05:00:47 10° NNE 05:04:24 65° E 05:04:56 55° SSE visible
27 Jan 8.6 06:36:47 10° WNW 06:37:00 10° WNW 06:37:12 10° WNW visible
28 Jan 8.6 04:31:55 10° NE 04:35:05 27° E 04:35:53 25° ESE visible
28 Jan 7.9 06:05:18 10° NNW 06:08:04 21° WNW 06:09:56 14° WSW visible
29 Jan 9.8 04:03:59 10° ENE 04:05:37 13° E 04:06:50 11° ESE visible
29 Jan 6.8 05:35:31 10° N 05:39:00 44° WNW 05:40:54 23° SW visible
30 Jan 6.6 05:06:08 10° NNE 05:09:47 76° ESE 05:11:55 23° S visible
31 Jan 8.4 04:37:09 10° NNE 04:40:26 31° E 04:43:02 14° SSE visible
31 Jan 8.0 06:10:49 10° NNW 06:13:20 18° WNW 06:15:51 10° WSW visible
